Weather reports worldwide

Advertisment
Chino, ca, United States of America (2074348): temperature & dewpoint: 06.12.2019 20:00:00 - 12.12.2019 20:00:00 (PST)Chino, ca, United States of America (2074348): wind speed: 06.12.2019 20:00:00 - 12.12.2019 20:00:00 (PST)Chino, ca, United States of America (2074348): wind direction: 06.12.2019 20:00:00 - 12.12.2019 20:00:00 (PST)Chino, ca, United States of America (2074348): reduced air pressure: 06.12.2019 20:00:00 - 12.12.2019 20:00:00 (PST)Chino, ca, United States of America (2074348): visibility: 06.12.2019 20:00:00 - 12.12.2019 20:00:00 (PST)Chino, ca, United States of America (2074348): precipitation: 06.12.2019 20:00:00 - 12.12.2019 20:00:00 (PST)
Date & Time tt [°C] td [°C] ff [km/h] ff [kn] dd ppp [hPa] vv [km] rr [mm]
12.12.2019 20:00:00 14,4 10,6 5 3 ESE 1021,7 16 -
12.12.2019 19:00:00 15,6 10,6 0 0 N 1021,7 16 -
12.12.2019 18:00:00 15,6 10,0 5 3 W 1021,4 16 -
12.12.2019 17:00:00 17,8 11,1 5 3 SW 1020,9 16 -
12.12.2019 16:00:00 21,7 6,7 0 0 N 1020,5 16 -
12.12.2019 15:00:00 22,2 6,7 5 3 W 1020,7 16 -
12.12.2019 14:00:00 21,7 5,6 8 4 NW 1021,1 16 -
12.12.2019 13:00:00 20,6 6,7 5 3 N 1021,8 11 -
12.12.2019 12:00:00 18,9 6,1 0 0 N 1022,8 16 -
12.12.2019 11:00:00 17,2 6,1 0 0 N 1024,1 16 -
12.12.2019 10:00:00 14,4 7,8 0 0 N 1024,6 16 -
12.12.2019 09:00:00 11,7 7,8 0 0 N 1024,4 16 -
12.12.2019 08:00:00 8,9 6,7 0 0 N 1024,1 16 -
12.12.2019 07:00:00 7,8 6,1 5 3 SW 1023,7 16 -
12.12.2019 06:00:00 8,3 6,1 5 3 NE 1023,3 10 -
12.12.2019 05:00:00 7,8 6,1 5 3 SSW 1023,0 10 -
12.12.2019 04:00:00 7,8 6,7 5 3 ENE 1022,5 10 -
12.12.2019 03:00:00 9,4 7,2 0 0 N 1022,7 8 -
12.12.2019 02:00:00 9,4 7,2 5 3 NNE 1022,4 10 -
12.12.2019 01:00:00 8,9 6,1 0 0 N 1022,4 8 -
12.12.2019 00:00:00 10,6 7,2 0 0 N 1022,4 11 -
11.12.2019 23:00:00 9,4 7,8 0 0 N 1022,9 8 -
11.12.2019 22:00:00 9,4 6,7 0 0 N 1022,7 11 -
11.12.2019 21:00:00 11,7 7,2 0 0 N 1022,4 11 -
11.12.2019 20:00:00 12,8 6,1 0 0 N 1022,1 16 -
11.12.2019 19:00:00 13,9 6,1 0 0 N 1021,7 16 -
11.12.2019 18:00:00 13,9 5,6 0 0 N 1021,5 15 -
11.12.2019 17:00:00 15,0 6,1 5 3 WSW 1021,1 16 -
11.12.2019 16:00:00 18,3 5,6 15 8 W 1020,8 16 -
11.12.2019 15:00:00 18,9 5,0 8 4 W 1020,6 16 -
11.12.2019 14:00:00 18,9 5,6 13 7 WNW 1020,8 16 -
11.12.2019 13:00:00 18,9 5,0 0 0 N 1021,2 16 -
11.12.2019 12:00:00 17,2 5,6 5 3 - 1022,0 16 -
11.12.2019 11:00:00 15,0 5,0 0 0 N 1023,2 16 -
11.12.2019 10:00:00 12,2 6,1 0 0 N 1023,7 16 -
11.12.2019 09:00:00 9,4 6,1 0 0 N 1024,1 16 -
11.12.2019 08:00:00 7,8 5,6 0 0 N 1023,4 16 -
11.12.2019 07:00:00 5,0 3,9 0 0 N 1023,2 16 -
11.12.2019 06:00:00 5,6 3,9 0 0 N 1022,8 15 -
11.12.2019 05:00:00 5,6 4,4 0 0 N 1022,5 16 -
11.12.2019 04:00:00 6,7 5,0 0 0 N 1022,1 16 -
11.12.2019 03:00:00 6,7 5,0 0 0 N 1022,5 15 -
11.12.2019 02:00:00 6,7 5,6 0 0 N 1022,4 15 -
11.12.2019 01:00:00 7,8 6,7 0 0 N 1022,7 10 -
11.12.2019 00:00:00 8,9 6,7 0 0 N 1023,1 11 -
10.12.2019 23:00:00 7,2 6,1 5 3 NW 1023,3 10 -
10.12.2019 22:00:00 10,0 8,3 0 0 N 1023,2 13 -
10.12.2019 21:00:00 10,0 7,8 0 0 N 1022,9 16 -
10.12.2019 20:00:00 12,8 8,3 5 3 E 1022,7 16 -
10.12.2019 19:00:00 13,9 8,3 8 4 W 1023,0 16 -
10.12.2019 18:00:00 14,4 7,8 5 3 W 1022,4 16 -
10.12.2019 17:00:00 16,1 7,2 0 0 N 1021,9 16 -
10.12.2019 16:00:00 18,9 6,7 5 3 W 1022,0 16 -
10.12.2019 15:00:00 19,4 5,6 0 0 N 1021,9 16 -
10.12.2019 14:00:00 18,9 5,6 0 0 N 1022,1 16 -
10.12.2019 13:00:00 18,3 6,1 0 0 N 1022,8 16 -
10.12.2019 12:00:00 16,7 6,7 0 0 N 1023,6 16 -
10.12.2019 11:00:00 13,9 9,4 5 3 NW 1024,5 16 -
10.12.2019 10:00:00 12,8 8,3 0 0 N 1024,6 16 -
10.12.2019 09:00:00 11,1 8,3 0 0 N 1024,3 16 -
10.12.2019 08:00:00 7,8 7,8 0 0 N 1023,8 16 -
10.12.2019 07:00:00 5,0 5,0 0 0 N 1023,3 0,8 -
10.12.2019 06:00:00 6,7 5,6 0 0 N 1022,7 2,4 -
10.12.2019 05:00:00 6,1 6,1 0 0 N 1022,6 2,8 -
10.12.2019 04:00:00 5,0 4,4 0 0 N 1022,2 1,2 -
10.12.2019 03:00:00 7,2 6,1 0 0 N 1021,8 11 -
10.12.2019 02:00:00 8,3 7,2 8 4 NNE 1021,7 8 -
10.12.2019 01:00:00 8,3 7,2 0 0 N 1021,5 8 -
10.12.2019 00:00:00 9,4 7,8 0 0 N 1021,4 10 -
09.12.2019 23:00:00 9,4 7,8 0 0 N 1021,2 8 -
09.12.2019 22:00:00 10,6 8,9 0 0 N 1020,7 15 -
09.12.2019 21:00:00 11,7 9,4 0 0 N 1020,4 16 -
09.12.2019 20:00:00 11,7 8,9 5 3 SE 1019,8 16 -
09.12.2019 19:00:00 12,2 8,3 5 3 NNW 1019,1 16 -
09.12.2019 18:00:00 13,9 8,3 0 0 N 1018,6 16 -
09.12.2019 17:00:00 13,9 7,8 9 5 WSW 1017,7 16 -
09.12.2019 16:00:00 17,8 7,2 11 6 WSW 1017,3 16 -
09.12.2019 15:00:00 19,4 7,8 11 6 SW 1017,0 16 -
09.12.2019 14:00:00 20,0 8,3 13 7 W 1017,3 16 -
09.12.2019 13:00:00 18,9 11,1 13 7 W 1017,4 16 -
09.12.2019 12:00:00 18,9 11,7 15 8 W 1018,1 16 -
09.12.2019 11:00:00 15,6 11,7 8 4 W 1019,0 11 -
09.12.2019 10:00:00 13,3 11,1 0 0 N 1019,6 6 -
09.12.2019 09:00:00 12,2 11,1 8 4 NNW 1019,4 6 -
09.12.2019 08:00:00 11,1 9,4 0 0 N 1018,5 13 -
09.12.2019 07:00:00 10,6 8,9 0 0 N 1017,9 16 -
09.12.2019 06:00:00 10,6 9,4 0 0 N 1017,5 13 -
09.12.2019 05:00:00 10,6 9,4 0 0 N 1017,1 13 -
09.12.2019 04:00:00 10,0 8,9 0 0 N 1016,9 10 -
09.12.2019 03:00:00 10,6 9,4 0 0 N 1016,8 11 -
09.12.2019 02:00:00 10,6 9,4 0 0 N 1016,6 10 -
09.12.2019 01:00:00 11,7 10,6 0 0 N 1017,1 10 0,0
09.12.2019 00:00:00 12,2 11,1 0 0 N 1017,2 11 -
08.12.2019 23:00:00 11,7 10,6 0 0 N 1016,9 11 -
08.12.2019 22:00:00 11,1 10,0 0 0 N 1016,5 13 -
08.12.2019 21:00:00 11,7 10,6 5 3 W 1016,1 16 -
08.12.2019 20:00:00 11,1 10,0 8 4 W 1016,1 16 -
08.12.2019 19:00:00 12,2 10,6 11 6 W 1016,0 16 -
08.12.2019 18:00:00 13,3 11,1 5 3 WNW 1015,9 16 -
08.12.2019 17:00:00 13,9 12,8 8 4 SW 1015,6 16 -
08.12.2019 16:00:00 14,4 12,8 13 7 WSW 1015,9 10 0,5
08.12.2019 15:00:00 14,4 12,8 15 8 W 1015,9 4,8 0,3
08.12.2019 14:00:00 16,7 11,1 22 12 WSW 1015,4 16 -
08.12.2019 13:00:00 17,2 12,8 16 9 WSW 1016,0 16 0,3
08.12.2019 12:00:00 16,7 12,2 13 7 SW 1017,0 16 -
08.12.2019 11:00:00 17,2 12,8 13 7 W 1018,1 16 -
08.12.2019 10:00:00 16,7 13,3 5 3 SSW 1018,9 11 -
08.12.2019 09:00:00 15,6 13,3 5 3 SW 1018,9 11 -
08.12.2019 08:00:00 14,4 12,8 5 3 WNW 1018,4 11 -
08.12.2019 07:00:00 13,3 12,2 5 3 WNW 1018,4 11 -
08.12.2019 06:00:00 13,9 12,8 0 0 N 1018,0 10 -
08.12.2019 05:00:00 14,4 13,3 5 3 NW 1017,8 11 -
08.12.2019 04:00:00 14,4 13,3 9 5 NW 1018,1 11 -
08.12.2019 03:00:00 14,4 13,9 5 3 WNW 1018,4 4,8 -
08.12.2019 02:00:00 14,4 13,3 11 6 NW 1018,6 11 -
08.12.2019 01:00:00 14,4 13,3 5 3 WNW 1018,6 15 -
08.12.2019 00:00:00 15,0 13,9 5 3 WNW 1018,8 16 -
07.12.2019 23:00:00 14,4 13,9 0 0 N 1019,3 10 0,0
07.12.2019 22:00:00 15,0 13,9 8 4 WNW 1019,5 13 -
07.12.2019 21:00:00 14,4 13,9 8 4 NW 1018,7 11 0,3
07.12.2019 20:00:00 15,0 13,3 8 4 NW 1019,7 3,2 0,0
07.12.2019 19:00:00 15,0 13,9 5 3 S 1018,7 16 -
07.12.2019 18:00:00 15,6 13,3 8 4 W 1018,8 16 -
07.12.2019 17:00:00 16,1 13,3 8 4 NW 1018,4 16 -
07.12.2019 16:00:00 16,1 13,3 5 3 WNW 1018,5 16 -
07.12.2019 15:00:00 16,7 13,9 8 4 W 1018,8 13 -
07.12.2019 14:00:00 17,2 14,4 8 4 WSW 1019,2 10 -
07.12.2019 13:00:00 16,7 13,9 5 3 WNW 1019,6 10 0,0
07.12.2019 12:00:00 16,7 13,3 0 0 N 1020,4 8 -
07.12.2019 11:00:00 17,2 13,3 8 4 ESE 1021,3 16 -
07.12.2019 10:00:00 15,6 13,9 0 0 N 1022,3 16 -
07.12.2019 09:00:00 15,0 13,3 0 0 N 1021,8 11 -
07.12.2019 08:00:00 13,9 13,3 0 0 N 1021,9 10 0,3
07.12.2019 07:00:00 13,9 12,8 0 0 N 1021,1 10 0,0
07.12.2019 06:00:00 13,3 12,2 5 3 NNE 1020,8 13 0,3
07.12.2019 05:00:00 13,9 12,2 0 0 N 1020,6 13 0,0
07.12.2019 04:00:00 13,9 12,2 9 5 ESE 1020,4 11 0,0
07.12.2019 03:00:00 14,4 12,8 8 4 NNE 1020,7 13 0,3
07.12.2019 02:00:00 13,9 12,8 0 0 N 1021,4 6 0,5
07.12.2019 01:00:00 13,9 12,2 0 0 N 1020,5 16 0,0
07.12.2019 00:00:00 13,3 12,8 0 0 N 1021,3 8 -
06.12.2019 23:00:00 13,3 12,2 5 3 ESE 1021,7 8 -
06.12.2019 22:00:00 13,3 12,2 8 4 NNE 1021,9 10 0,0
06.12.2019 21:00:00 14,4 12,8 5 3 SW 1021,7 11 -
06.12.2019 20:00:00 14,4 12,8 0 0 N 1021,0 13 -

tt = temperature
td = dewpoint
ff = wind speed
dd = wind direction
ppp = reduced air pressure
vv = visibility
rr = precipitation

Next stations